CZ-11 DEB (47236 NORAD) Tracking and Keplerian Element Data
This shows tracking and keplerian element data for the satellite.
Feedback or suggestion? Click here.
Element | Value |
Catalog | 47236 |
Name | CZ-11 DEB |
Epoch Orbit | 176 |
Epoch Day | 357.11160346 |
Epoch Year | 2020 |
RAAN | 301.1218 |
Inclination | 28.9945 |
Eccentricity | 0.0032989 |
Argument of Perigee | 64.437 |
Mean Anonmoly | 295.9632 |
Mean Motion | 14.95081582 |
Decay Rate | 0.00016645 |
L1 | 1 47236U 20094C 20357.11160346 .00016645 00000-0 14539-2 0 9992 |
L2 | 2 47236 28.9945 301.1218 0032989 64.4370 295.9632 14.95081582 1765 |
Live tracking and technical data element details for CZ-11 DEB (NORAD 47236). CZ-11 DEB can be tracked NOW for your location showing map with azimuth and elevation plus other details from your city location.
Track the satellite on the map from your city or location and see movement details for azimuth, elevation, latitude, longitude, range, height, and movement on the map or in text.
IsCatalogInMostPopularTable: catalog: 47236, numindb: 16
Update: records affected: 1
GetName: 47236 CZ-11 DEB
Hit Count: updated at: Sun, 17 Jan 2021 09:04:12 GMT